Weather History for Abbeville, LA

Change the Weather History Date:

Tuesday, September 10, 2013

  Actual Average (KARA) Record (KARA)
Temperature  
Mean Temperature 82 °F 80 °F  
Max Temperature 93 °F 90 °F 99 °F (1954)
Min Temperature 72 °F 71 °F 59 °F (1956)
Degree Days  
Heating Degree Days 0 0  
Month to date heating degree days 0  
Since 1 July heating degree days 0  
Cooling Degree Days 18 15  
Month to date cooling degree days 161  
Year to date cooling degree days 2304  
Growing Degree Days 32 (Base 50)    
Moisture  
Dew Point 71 °F    
Average Humidity 78    
Maximum Humidity 100    
Minimum Humidity 34    
Precipitation  
Precipitation 0.00 in 0.17 in 3.20 in (1965)
Month to date precipitation 1.57  
Year to date precipitation 42.42  
Sea Level Pressure  
Sea Level Pressure 30.06 in    
Wind  
Wind Speed 2 mph (East)    
Max Wind Speed 13 mph    
Max Gust Speed 28 mph    
Visibility 9 miles    
Events Rain , Thunderstorm    
T = Trace of Precipitation, MM = Missing Value Source: NWS Daily Summary

Daily Weather History Graph

Daily Weather History Graph

Search for Another Location

Airport:

Trip Planner

Search our weather history database for the weather conditions in past years. The results will help you decide how hot, cold, wet, or windy it might be!

Date:

Astronomy

Sep. 10, 2013 Rise Set
Actual Time 6:50 AM CDT 7:19 PM CDT
Civil Twilight 6:26 AM CDT 7:43 PM CDT
Nautical Twilight 5:58 AM CDT 8:11 PM CDT
Astronomical Twilight 5:29 AM CDT 8:40 PM CDT
Moon 11:50 AM CDT (9/10) 10:49 PM CDT (9/10)
Length of Visible Light 13h 17m
Length of Day
12h 29m
Waxing Crescent, 28% of the Moon is Illuminated
Sep 10
Waxing Crescent
Sep 12
First Quarter
Sep 19
Full
Sep 26
Last Quarter
Oct 4
New

Hourly Weather History & Observations

Time (CDT) Temp. Heat Index Dew Point Humidity Pressure Visibility Wind Dir Wind Speed Gust Speed Precip Events Conditions
12:15 AM 76.3 °F - 75.4 °F 97% 30.00 in 10.0 mi Calm Calm - N/A   Clear
12:35 AM 75.7 °F - 75.0 °F 98% 30.01 in 10.0 mi Calm Calm - N/A   Clear
12:55 AM 75.6 °F - 74.8 °F 98% 30.01 in 10.0 mi Calm Calm - N/A   Clear
1:15 AM 75.6 °F - 74.7 °F 97% 30.01 in 10.0 mi ENE 3.5 mph - N/A   Clear
1:35 AM 75.6 °F - 74.7 °F 97% 30.01 in 10.0 mi Calm Calm - N/A   Clear
1:55 AM 75.2 °F - 74.5 °F 98% 30.01 in 10.0 mi East 3.5 mph - N/A   Clear
2:15 AM 75.2 °F - 74.3 °F 97% 30.02 in 10.0 mi Calm Calm - N/A   Clear
2:35 AM 74.3 °F - 73.8 °F 98% 30.02 in 10.0 mi ENE 3.5 mph - N/A   Clear
2:55 AM 74.5 °F - 73.9 °F 98% 30.02 in 10.0 mi East 3.5 mph - N/A   Clear
3:15 AM 74.5 °F - 73.9 °F 98% 30.02 in 10.0 mi East 3.5 mph - N/A   Clear
3:35 AM 74.3 °F - 73.8 °F 98% 30.02 in 10.0 mi ENE 3.5 mph - N/A   Clear
3:55 AM 73.8 °F - 73.4 °F 99% 30.03 in 10.0 mi Calm Calm - N/A   Clear
4:15 AM 73.4 °F - 72.9 °F 98% 30.03 in 7.0 mi Calm Calm - N/A   Clear
4:35 AM 72.7 °F - 72.7 °F 100% 30.03 in 5.0 mi Calm Calm - N/A   Clear
4:55 AM 72.9 °F - 72.9 °F 100% 30.03 in 7.0 mi Calm Calm - N/A   Clear
5:15 AM 73.4 °F - 73.4 °F 100% 30.04 in 5.0 mi NE 3.5 mph - N/A   Clear
5:35 AM 73.0 °F - 73.0 °F 100% 30.04 in 4.0 mi Calm Calm - N/A   Clear
5:55 AM 73.4 °F - 73.4 °F 100% 30.04 in 2.0 mi Calm Calm - N/A   Clear
6:15 AM 73.0 °F - 73.0 °F 100% 30.05 in 2.0 mi Calm Calm - N/A   Clear
6:35 AM 72.9 °F - 72.9 °F 100% 30.05 in 0.8 mi Calm Calm - N/A   Mist
6:55 AM 73.0 °F - 73.0 °F 100% 30.06 in 2.5 mi Calm Calm - N/A   Clear
7:15 AM 73.2 °F - 73.2 °F 100% 30.07 in 1.8 mi ENE 3.5 mph - N/A   Mist
7:35 AM 74.3 °F - 74.3 °F 100% 30.08 in 5.0 mi ENE 3.5 mph - N/A   Clear
7:55 AM 75.2 °F - 75.2 °F 100% 30.08 in 5.0 mi Calm Calm - N/A   Clear
8:15 AM 76.1 °F - 76.1 °F 100% 30.08 in 10.0 mi NE 4.6 mph - N/A   Clear
8:35 AM 77.5 °F - 76.8 °F 98% 30.08 in 10.0 mi NE 4.6 mph - N/A   Clear
8:55 AM 80.2 °F 85.5 °F 75.2 °F 85% 30.08 in 10.0 mi Calm Calm - N/A   Clear
9:15 AM 82.8 °F 89.5 °F 74.7 °F 76% 30.09 in 10.0 mi NE 4.6 mph - N/A   Clear
9:35 AM 84.2 °F 90.6 °F 72.9 °F 69% 30.10 in 10.0 mi ENE 3.5 mph - N/A   Clear
9:55 AM 85.1 °F 90.4 °F 71.4 °F 63% 30.10 in 10.0 mi ENE 5.8 mph - N/A   Clear
10:15 AM 86.5 °F 92.1 °F 71.1 °F 60% 30.10 in 10.0 mi ENE 4.6 mph - N/A   Clear
10:35 AM 88.0 °F 92.1 °F 68.7 °F 53% 30.10 in 10.0 mi East 5.8 mph - N/A   Scattered Clouds
10:55 AM 88.2 °F 90.9 °F 66.6 °F 49% 30.10 in 10.0 mi East 6.9 mph - N/A   Scattered Clouds
11:15 AM 88.7 °F 90.1 °F 64.2 °F 44% 30.10 in 10.0 mi East 6.9 mph - N/A   Clear
11:35 AM 88.2 °F 89.3 °F 63.7 °F 44% 30.10 in 10.0 mi NE 6.9 mph - N/A   Clear
11:55 AM 90.7 °F 90.4 °F 60.1 °F 36% 30.09 in 10.0 mi ENE 5.8 mph - N/A   Clear
12:15 PM 89.8 °F 89.1 °F 59.5 °F 36% 30.09 in 10.0 mi East 6.9 mph - N/A   Clear
12:35 PM 90.3 °F 90.5 °F 61.5 °F 38% 30.09 in 10.0 mi East 4.6 mph - N/A   Clear
12:55 PM 90.1 °F 90.9 °F 62.6 °F 40% 30.09 in 10.0 mi ENE 5.8 mph - N/A   Scattered Clouds
1:15 PM 92.3 °F 93.1 °F 62.2 °F 37% 30.09 in 10.0 mi East 5.8 mph - N/A   Mostly Cloudy
1:35 PM 92.5 °F 92.2 °F 60.6 °F 34% 30.08 in 10.0 mi ESE 6.9 mph 10.4 mph N/A   Scattered Clouds
1:55 PM 92.7 °F 92.9 °F 61.5 °F 35% 30.08 in 10.0 mi East 5.8 mph - N/A   Scattered Clouds
2:15 PM 92.7 °F 92.9 °F 61.2 °F 35% 30.07 in 10.0 mi East 5.8 mph - N/A   Scattered Clouds
2:35 PM 93.4 °F 93.5 °F 61.2 °F 34% 30.05 in 10.0 mi East 5.8 mph - N/A   Scattered Clouds
2:55 PM 92.5 °F 93.0 °F 61.9 °F 36% 30.05 in 10.0 mi ENE 8.1 mph - N/A   Mostly Cloudy
3:15 PM 92.1 °F 92.4 °F 61.9 °F 36% 30.04 in 10.0 mi East 5.8 mph - N/A   Mostly Cloudy
3:35 PM 92.7 °F 93.6 °F 62.8 °F 37% 30.04 in 10.0 mi SE 6.9 mph - N/A   Mostly Cloudy
3:55 PM 90.1 °F 91.2 °F 63.7 °F 41% 30.03 in 10.0 mi SSE 10.4 mph - N/A   Mostly Cloudy
4:15 PM 91.8 °F 93.8 °F 64.9 °F 41% 30.02 in 10.0 mi SSE 5.8 mph - N/A   Mostly Cloudy
4:35 PM 84.6 °F 86.1 °F 64.8 °F 51% 30.04 in 10.0 mi SE 12.7 mph 27.6 mph N/A Thunderstorm Overcast
4:55 PM 79.0 °F - 68.5 °F 70% 30.03 in 7.0 mi SSE 9.2 mph - N/A Rain , Thunderstorm Thunderstorms and Rain
5:15 PM 79.3 °F - 71.1 °F 76% 30.03 in 10.0 mi SSE 6.9 mph - N/A   Mostly Cloudy
5:35 PM 80.8 °F 84.7 °F 71.2 °F 73% 30.04 in 10.0 mi WNW 4.6 mph - N/A   Clear
5:55 PM 80.4 °F 83.9 °F 70.7 °F 72% 30.04 in 10.0 mi Calm Calm - N/A   Clear
6:15 PM 81.5 °F 85.7 °F 71.2 °F 71% 30.05 in 10.0 mi Calm Calm - N/A   Clear
6:35 PM 80.8 °F 85.4 °F 72.9 °F 77% 30.05 in 10.0 mi Calm Calm - N/A   Clear
6:55 PM 80.2 °F 84.9 °F 73.8 °F 81% 30.05 in 10.0 mi Calm Calm - N/A   Clear
7:15 PM 79.7 °F - 74.5 °F 84% 30.05 in 10.0 mi Calm Calm - N/A   Clear
7:35 PM 79.0 °F - 75.7 °F 90% 30.05 in 10.0 mi Calm Calm - N/A   Clear
7:55 PM 78.8 °F - 75.7 °F 90% 30.05 in 10.0 mi Calm Calm - N/A   Clear
8:15 PM 78.4 °F - 76.1 °F 92% 30.05 in 10.0 mi Calm Calm - N/A   Clear
8:35 PM 77.4 °F - 76.3 °F 96% 30.05 in 7.0 mi Calm Calm - N/A   Clear
8:55 PM 77.2 °F - 76.6 °F 98% 30.06 in 10.0 mi Calm Calm - N/A   Clear
9:15 PM 77.0 °F - 76.1 °F 97% 30.07 in 10.0 mi Calm Calm - N/A   Clear
9:35 PM 76.6 °F - 76.3 °F 99% 30.07 in 10.0 mi NNE 3.5 mph - N/A   Clear
9:55 PM 76.6 °F - 75.9 °F 98% 30.08 in 10.0 mi Calm Calm - N/A   Clear
10:15 PM 76.6 °F - 76.3 °F 99% 30.08 in 7.0 mi Calm Calm - N/A   Clear
10:35 PM 76.1 °F - 75.7 °F 99% 30.08 in 10.0 mi Calm Calm - N/A   Clear
10:55 PM 76.5 °F - 76.5 °F 100% 30.08 in 7.0 mi Calm Calm - N/A   Clear
11:15 PM 75.9 °F - 75.9 °F 100% 30.08 in 7.0 mi Calm Calm - N/A   Clear
11:35 PM 75.6 °F - 75.6 °F 100% 30.08 in 10.0 mi NE 3.5 mph - N/A   Clear
11:55 PM 75.7 °F - 75.4 °F 99% 30.08 in 10.0 mi Calm Calm - N/A   Clear